User: anonymous   Login
Location: D�derode
(51.8092°N, 10.1065°E)
Time: 08:17:44
(UTC+00:00)
Language:

SKYMED 4 - Orbit

View from above orbital plane
View from above orbital plane
View from above satellite
View from above satellite

Ground track
Ground track

The orbit data is extracted from the following two-line orbital elements,

1 37216U 10060A   21169.49882891  .00000023  00000-0  94170-5 0  9995
2 37216  97.8898 353.3722 0001322  86.2546 273.8821 14.82156206574343
Epoch (UTC): 18 June 2021 11:58:18
Eccentricity: 0.0001322
inclination: 97.8898°
perigee height: 621 km
apogee height: 623 km
right ascension of ascending node: 353.3722°
argument of perigee: 86.2546°
revolutions per day: 14.82156206
mean anomaly at epoch: 273.8821°
orbit number at epoch: 57434

The dashed part of the orbit path shows where the satellite is in the earth's shadow,  

DLR